Flag for Luxembourg Weather past 2 weeks in Differdange, Luxembourg

Now
95 °F

Passing clouds.


Feels Like: 95 °F
Forecast: 68 / 91 °F
Wind: 8 mph from South

Location: Luxembourg Airport

Current Time: Jul 2, 2015 at 6:47:55 PM

Latest Report: Jul 2, 2015 at 5:50 PM


Visibility: N/A

Pressure: 30.09 "Hg

Humidity: 32%

Dew point: 61 °F

Location of DifferdangeLocation

Historic Weather in Differdange — Graph

°F

Differdange temperature yesterday

Maximum temperature yesterday: 91 °F (at 3:20 PM)
Minimum temperature yesterday: 66 °F (at 5:50 AM)
Average temperature yesterday: 80 °F

Past Weeks' High & Low Weather Summary

 TemperatureHumidityPressure
High95 °F (Jul 2, 3:20 PM)100% (Jun 18, 5:50 AM)30.24 "Hg (Jun 18, 5:50 AM)
Low45 °F (Jun 19, 3:50 AM)25% (Jun 30, 6:20 PM)29.71 "Hg (Jun 22, 9:20 PM)
Average64 °F65%30.10 "Hg
* Reported Jun 17 5:20 PM — Jul 2 5:20 PM, Differdange, Weather by CustomWeather, © 2015

Note: Actual official high and low records may vary slightly from our data, if they occured in-between our weather recording intervals... More about our weather records

Advertising

Differdange weather history for previous 24 hours

 ConditionsComfort  
Time TempWeatherWind HumidityBarometerVisibility
5:20 PM
Thu, Jul 2
95 °FPassing clouds.10 mph32%30.09 "HgN/A
4:50 PM95 °FPassing clouds.12 mph30%30.09 "HgN/A
4:20 PM95 °FPassing clouds.12 mph30%30.09 "HgN/A
3:50 PM95 °FPassing clouds.9 mph32%30.09 "HgN/A
3:20 PM95 °FPassing clouds.9 mph32%30.09 "HgN/A
2:50 PM93 °FPassing clouds.13 mph32%30.09 "HgN/A
2:20 PM93 °FPassing clouds.9 mph30%30.09 "HgN/A
1:50 PM93 °FPassing clouds.8 mph32%30.12 "HgN/A
1:20 PM91 °FPassing clouds.9 mph32%30.12 "HgN/A
12:50 PM91 °FPassing clouds.9 mph30%30.12 "HgN/A
12:20 PM90 °FPassing clouds.10 mph33%30.12 "HgN/A
11:50 AM88 °FPassing clouds.10 mph40%30.09 "HgN/A
11:20 AM86 °FPassing clouds.8 mph40%30.12 "HgN/A
10:50 AM84 °FPassing clouds.8 mph45%30.09 "HgN/A
10:20 AM84 °FPassing clouds.9 mph48%30.09 "HgN/A
9:50 AM81 °FPassing clouds.6 mph54%30.12 "HgN/A
9:20 AM81 °FPassing clouds.7 mph51%30.12 "HgN/A
8:50 AM77 °FPassing clouds.6 mph61%30.12 "HgN/A
8:20 AM77 °FPassing clouds.5 mph57%30.12 "HgN/A
7:50 AM77 °FPassing clouds.7 mph57%30.09 "HgN/A
7:20 AM75 °FSunny.3 mph57%30.12 "Hg10 mi
6:50 AM73 °FSunny.5 mph61%30.09 "Hg10 mi
6:20 AM73 °FClear.6 mph61%30.09 "Hg10 mi
5:50 AM72 °FClear.6 mph61%30.09 "Hg10 mi
5:20 AM73 °FClear.5 mph57%30.09 "Hg10 mi
4:50 AM73 °FClear.5 mph57%30.09 "Hg10 mi
4:20 AM75 °FMild.3 mph54%30.09 "HgN/A
3:50 AM75 °FMild.5 mph54%30.09 "HgN/A
3:20 AM75 °FMild.5 mph54%30.09 "HgN/A
2:50 AM77 °FWarm.5 mph51%30.09 "HgN/A
2:20 AM77 °FWarm.5 mph51%30.09 "HgN/A
1:50 AM77 °FClear.5 mph51%30.09 "Hg10 mi
1:20 AM79 °FClear.3 mph48%30.09 "Hg10 mi
12:50 AM79 °FClear.3 mph48%30.09 "Hg10 mi
12:20 AM79 °FWarm.5 mph48%30.09 "HgN/A
11:50 PM
Wed, Jul 1
79 °FClear.3 mph48%30.09 "Hg10 mi
10:50 PM82 °FClear.3 mph48%30.07 "Hg10 mi
10:20 PM82 °FSunny.5 mph48%30.07 "Hg10 mi
9:50 PM84 °FSunny.3 mph45%30.07 "Hg10 mi
9:20 PM86 °FSunny.3 mph40%30.04 "Hg10 mi
8:50 PM86 °FSunny.5 mph40%30.04 "Hg10 mi
8:20 PM88 °FPassing clouds.6 mph38%30.04 "HgN/A
7:50 PM90 °FPassing clouds.7 mph33%30.04 "HgN/A
7:20 PM91 °FPassing clouds.8 mph32%30.04 "HgN/A
6:50 PM91 °FPassing clouds.7 mph32%30.04 "HgN/A
6:20 PM91 °FPassing clouds.7 mph34%30.04 "HgN/A
Weather by CustomWeather, © 2015

See weather overviewHow to use our weather pages